Terminal Aerodrome Forecast
Issued by NWS Goodland, KS

Home | Current Version | Previous Version | Text Only | Print | Product List | Glossary On
Versions: 1 2 3 4 5 6 7 8 9 10 11 12 13 14 15 16 17 18 19 20 21 22 23
000
FTUS43 KGLD 192322
TAFGLD
TAF
KGLD 192322Z 2000/2024 23010KT P6SM SKC
     FM200800 26010KT P6SM SCT200
      TEMPO 2008/2012 5SM BR
     FM201600 29008KT P6SM SCT200=

USA.gov is the U.S. government's official web portal to all federal, state and local government web resources and services.